Back to catalog

STARLINK-32406

AliveCommunicationsVLEO
NORAD 61545·PAYLOAD·🇺🇸 United States

Launched Oct 15, 2024 from Vandenberg Space Force Base

Loading…

Next Passes (next 24 hours)

TLE

FreshSource: CelesTrak SupGP

Epoch: Sep 14, 2026, 21:35 UTC

1 61545C 24184P   26257.89979167  .00022249  00000+0  65718-3 0  2573
2 61545  53.1594 212.0866 0001498  90.0236  71.2774 15.34386612    15

Track STARLINK-32406 in real time with AllMySat

Download on the App Store